STARLINK-11726, 64067

Orbit data source: Space-Track

STARLINK-11726, 64067 is a payload satellite owned by SpaceX/Seattle (US) in LEO that was launched on Wed, 21 May 2025 UTC via an FALCON 9 launch vehicle from the Air Force Eastern Test Range (AFETR). Payload-class satellites include a variety of spacecraft equipped with specific instruments for various scientific and technological missions. These include communications satellites like Starlink; space stations such as the ISS; scientific satellites like the Hubble; Earth observation satellites from companies like Planet Labs, Umbra, and HawkEye 360; GPS; miniature CubeSats for education and research; and military/defense satellites.

Loading next visibility...
Identifier
64067, 2025-107D
Orbit
LEO
Country
Flag of USUS
Related business
Manufacturer
SpaceX/Seattle
Mission
Operational Commercial Communications
Bus & Motor
STARLINK V2MD, Unknown motor
Mass
960 kg wet, ~910 kg dry
Launch date (UTC)
2025-05-21 (1 year ago)
Launch vehicle
FALCON 9
Launch site
Air Force Eastern Test Range (AFETR)
Object type
Payload
Rocket body
Debris
Shape & HBR
Box + 2 Pan, 18.1 m
Radar Cross Section
36.964 m², Large (>1 m²)

Expand to show TLE details & history
Last TLE update: 15 hours ago

TLE from 15 hours ago
0 STARLINK-11726
1 64067U 25107D   26171.21182934  .00131111  00000-0  10082-2 0  9996
2 64067  42.9987 200.1282 0001053 221.9722 138.1066 15.70864398 63424
Epoch: 2026-06-20T05:05Z
TLE epoch observation values (Epoch: 2026-06-20T05:05:02.054Z)
Latitude
0.00003°
Longitude
-144.56003°
Altitude
356.724 km
Speed
7.697 km/s
True Right ascension
13h 20m 30s
True Declination
0° 00' 00"
Sunlit
Object was in full shadow at epoch
Visualization orbit readout
Latitude
Unknown
Longitude
Unknown
Altitude
Unknown
Speed
Unknown
Apparent Right ascension
Unknown
Apparent Declination
Unknown
Sunlit
N/A
Visualization observer readout
Local Sidereal Time
07:20:47
Azimuth
Unknown
Elevation
Unknown
Doppler factor
Unknown
Orbital elements
Apogee altitude
359.117 km
Perigee altitude
357.698 km
Semi-major axis
6,736.544 km
Eccentricity
0.00011
Inclination
42.9987°
RAAN
200.1282°
Arg. of periapsis
221.9722°
True anomaly
138.11466°
Mean anomaly
138.1066°
Eccentric anomaly
138.11063°
Mean motion
3.92543 °/min
Orbital period
91.71 mins
BSTAR
0.0010082
Loading maneuver chart data...
Computing Atmospheric mass density...
Loading historical data...
Loading historical data...
Loading historical data...
Loading historical data...
Loading historical data...
Loading historical data...
Loading historical data...

Documentation

Showing up to 5 results
|